Location: Unspecified
(0.0000°N, 0.0000°E)
Time: 06:35:14
(UTC+00:00)

Vanguard 2 - Visible Passes

Search period start: 19 June 2018 00:00
Search period end: 29 June 2018 00:00
Orbit: 553 x 2939 km, 32.9° (Epoch: 18 June)

Date Brightness Start Highest point End Pass type
(mag) Time Alt. Az. Time Alt. Az. Time Alt. Az.
19 Jun 11.4 18:36:37 10° SSW 18:46:21 17° S 18:55:59 10° SE visible
19 Jun 11.1 20:49:52 10° SSW 20:58:08 24° S 20:58:08 24° S visible
20 Jun 11.2 18:55:34 10° SSW 19:06:26 19° SSE 19:13:57 14° SE visible
20 Jun 11.1 21:07:47 10° SW 21:15:24 25° SSW 21:15:24 25° SSW visible
21 Jun 11.0 19:13:58 10° SSW 19:26:17 22° SSE 19:31:19 19° SE visible
21 Jun 11.1 21:25:42 10° SW 21:32:46 26° SSW 21:32:46 26° SSW visible
22 Jun 10.8 19:32:02 10° SSW 19:45:53 27° SSE 19:48:48 25° SE visible
22 Jun 11.1 21:43:42 10° SW 21:50:17 27° SW 21:50:17 27° SW visible
23 Jun 10.6 19:49:57 10° SSW 20:05:11 33° SSE 20:06:28 33° SSE visible
23 Jun 11.2 22:01:52 10° SW 22:07:56 26° SW 22:07:56 26° SW visible
24 Jun 10.4 20:07:50 10° SW 20:24:14 42° SSE 20:24:18 42° SSE visible
24 Jun 11.2 22:20:13 10° SW 22:25:48 25° SW 22:25:48 25° SW visible
25 Jun 11.1 18:15:10 10° SSW 18:27:45 24° SSE 18:40:29 10° ESE visible
25 Jun 10.2 20:25:45 10° SW 20:42:21 52° SSE 20:42:21 52° SSE visible
25 Jun 11.3 22:38:51 10° WSW 22:43:53 23° WSW 22:43:53 23° WSW visible
26 Jun 10.9 18:33:00 10° SSW 18:47:07 30° SSE 18:59:09 14° ESE visible
26 Jun 10.0 20:43:47 10° SW 21:00:42 65° SSE 21:00:42 65° SSE visible
26 Jun 11.4 22:57:52 10° WSW 23:02:15 21° WSW 23:02:15 21° WSW visible
27 Jun 10.7 18:50:48 10° SSW 19:06:12 37° SSE 19:17:48 18° E visible
27 Jun 9.9 21:01:58 10° SW 21:19:22 80° S 21:19:22 80° S visible
27 Jun 11.5 23:17:20 10° WSW 23:20:58 18° W 23:20:58 18° W visible
28 Jun 10.5 19:08:37 10° SW 19:25:02 47° SSE 19:36:51 20° E visible
28 Jun 10.0 21:20:23 10° WSW 21:38:28 81° NW 21:38:28 81° NW visible
